Location: St. Malo Provincial Park
(49.3214°N, 96.9305°W)
Time: 02:02:38
(UTC-05:00)

Daily predictions for brighter satellites

Satellite Brightness Start Highest point End
(mag) Time Altitude Azimuth Time Altitude Azimuth Time Altitude Azimuth
Cosmos 1536 4.1 00:01:18 10° NNW 00:04:55 32° W 00:05:26 31° WSW
Cosmos 1500 3.7 00:01:54 10° N 00:05:16 52° NE 00:05:16 52° NE
CZ-2C R/B 3.8 00:02:29 10° NE 00:07:13 28° E 00:07:21 28° E
Terra 3.0 00:07:06 29° SW 00:08:17 34° W 00:12:37 10° NNW
Cosmos 1125 Rocket 3.7 00:03:21 10° NNW 00:08:39 62° ENE 00:09:40 52° ESE
Cosmos 2237 Rocket 2.8 00:06:21 17° SW 00:10:37 57° NW 00:16:15 10° NNE
USA 267 4.2 00:04:44 10° ENE 00:10:56 47° N 00:17:07 10° WNW
Cosmos 2278 Rocket 3.7 00:07:06 10° NW 00:11:35 24° WSW 00:13:17 21° SW
NOSS 3-1 (A) 3.8 00:06:01 10° SW 00:11:58 65° NW 00:18:45 10° NE
Okean 1 Rocket 4.4 00:08:19 10° NNW 00:12:15 31° W 00:13:10 29° WSW
ATLAS 2AS CENTAUR R/B 3.2 00:11:16 43° SSE 00:13:10 51° ESE 00:20:57 10° NE
SL-08 ROCKET BODY 4.4 00:07:56 10° N 00:13:53 67° ENE 00:15:14 52° SE
Cosmos 1455 Rocket 3.1 00:09:29 10° N 00:13:57 68° ENE 00:13:57 68° ENE
Cosmos 2074 Rocket 4.2 00:08:06 10° N 00:14:13 58° ENE 00:15:45 46° SE
Cosmos 2333 Rocket 3.4 00:11:22 10° WSW 00:16:49 41° NW 00:22:18 10° NNE
CZ-4C R/B 4.2 00:20:11 40° WNW 00:20:11 40° WNW 00:23:08 10° NNW
Okean 1 4.0 00:21:07 47° NE 00:21:07 47° NE 00:24:16 10° NNE
H-2A R/B 4.1 00:24:53 18° WSW 00:25:46 19° W 00:28:51 10° NW
Cosmos 1814 Rocket 4.2 00:24:37 45° SW 00:26:03 65° WNW 00:31:12 10° NNE
Cosmos 2285 Rocket 4.0 00:25:43 41° SSW 00:28:07 81° WNW 00:34:32 10° NNE
Cosmos 540 Rocket 4.1 00:29:44 41° E 00:29:44 41° E 00:34:08 10° NE
NOSS 2-3 (E) 4.2 00:30:53 54° ESE 00:30:53 54° ESE 00:36:01 10° NE
Cosmos 2219 Rocket 4.1 00:29:16 10° WSW 00:34:02 28° NW 00:38:52 10° NNE
ATLAS 3B R/B 2.5 00:27:51 10° NW 00:34:45 82° SW 00:36:24 54° SSE
CZ-4B R/B 4.1 00:31:26 10° N 00:35:59 47° WNW 00:37:17 37° WSW
CZ-2C R/B 2.9 00:36:33 63° E 00:36:54 65° ENE 00:41:53 10° N
Gbstr 26 Del rocket 4.4 00:29:42 10° WSW 00:37:47 82° SSE 00:45:47 10° ENE
Cosmos 44 Rocket 4.3 00:33:52 10° NNW 00:38:20 39° NE 00:39:39 32° ENE
Cosmos 1975 Rocket 3.8 00:40:10 43° W 00:40:39 45° WNW 00:44:59 10° N
Cosmos 1943 4.5 00:43:36 26° E 00:43:36 26° E 00:47:44 10° NE
Cosmos 371 Rocket 3.5 00:43:45 57° WSW 00:44:26 64° WNW 00:49:19 10° NNE
Cosmos 304 Rocket 4.4 00:46:14 44° E 00:46:14 44° E 00:50:13 10° NNE
ALOS 2 2.6 00:46:16 77° NNE 00:46:16 77° NNE 00:50:25 10° NNW
Meteor 2-4 Rocket 4.5 00:46:06 35° E 00:46:17 35° E 00:51:13 10° NNE
Cosmos 841 Rocket 3.6 00:47:29 58° WSW 00:48:20 69° WNW 00:53:32 10° NNE
COSMOS 2455 4.3 00:47:36 10° NNW 00:53:01 33° NE 00:57:37 13° E
Cosmos 1812 4.1 00:58:32 32° WNW 00:58:32 32° WNW 01:01:54 10° N
CZ-4B R/B 3.4 01:01:14 24° NE 01:01:14 24° NE 01:03:09 10° N
Cosmos 1536 Rocket 3.7 01:02:00 71° NNW 01:02:00 71° NNW 01:06:00 10° N
USA 238 DEB 3.7 00:54:34 10° NW 01:01:39 77° SW 01:03:21 55° SSE
USA 238 3.7 00:54:39 10° NW 01:01:44 77° SW 01:03:28 54° SSE
NOSS 2-3 (C) 3.9 01:01:52 78° SW 01:02:15 89° SE 01:08:09 10° NE
Cosmos 1666 3.6 01:00:12 10° N 01:03:07 49° N 01:03:07 49° N
Cosmos 2369 Rocket 2.0 01:00:50 10° NNW 01:06:30 85° ENE 01:07:11 70° SE
Cosmos 1743 3.7 01:02:44 10° NNW 01:05:33 45° NNW 01:05:33 45° NNW
Meteor 1-13 Rocket 4.2 01:08:17 67° SSE 01:09:03 80° E 01:15:02 10° NNE
Cosmos 1603 3.5 01:08:35 72° SSE 01:09:04 78° ESE 01:14:51 10° NNE
Cosmos 44 3.7 01:05:11 10° NNW 01:09:27 47° NE 01:09:46 46° ENE
Cosmos 1943 Rocket 2.7 01:04:21 10° NNW 01:09:56 54° NE 01:11:29 41° ESE
Meteor 1-19 Rocket 4.2 01:13:08 68° SSE 01:13:52 80° E 01:19:48 10° NNE
Cosmos 1606 Rocket 4.4 01:09:53 10° N 01:13:58 41° ENE 01:13:58 41° ENE
Nadezhda 1 Rocket 3.9 01:15:19 63° S 01:16:26 89° E 01:22:46 10° N
H-2A R/B 4.4 01:13:55 10° NE 01:15:48 18° ENE 01:15:48 18° ENE
ATLAS CENTAUR R/B 3.0 01:22:05 25° WNW 01:23:25 30° NW 01:26:59 10° NNE
Cosmos 1025 Rocket 3.6 01:27:24 50° ENE 01:27:24 50° ENE 01:31:02 10° NNE
Cosmos 1461 3.4 01:23:40 10° NW 01:26:56 55° NNW 01:26:56 55° NNW
CENTAUR R/B 4.0 01:22:32 10° NW 01:29:41 45° NNE 01:37:31 10° ESE
ARGOS Delta rocket 3.7 01:28:52 10° N 01:33:15 82° NNW 01:33:15 82° NNW
NOSS 3-2 (C) 4.0 01:26:17 10° NW 01:33:39 80° NE 01:37:54 31° SE
SL-16 R/B 3.6 01:31:30 19° W 01:34:48 33° NW 01:39:57 10° NNE
Cosmos 1726 Rocket 4.0 01:30:30 10° N 01:34:39 55° ENE 01:34:39 55° ENE
NOSS 2-3 (D) 4.5 01:35:53 44° W 01:37:18 60° NW 01:43:13 10° NE
Cosmos 405 4.3 01:35:18 10° N 01:37:45 40° N 01:37:45 40° N
Cosmos 405 Rocket 3.7 01:43:30 43° N 01:43:30 43° N 01:46:10 10° N
Cosmos 783 Rocket 4.4 01:43:18 68° WSW 01:43:44 73° WNW 01:48:58 10° NNE
Cosmos 1656 Rocket 4.4 01:38:41 10° NNW 01:43:55 46° NE 01:46:05 30° ESE
CZ-2C R/B 3.2 01:42:24 10° N 01:47:45 52° WNW 01:48:53 44° WSW
Meteor 2-9 Rocket 4.3 01:44:12 10° NNW 01:49:24 55° W 01:49:32 55° WSW
USA 267 4.0 01:47:02 10° E 01:53:20 53° NNE 01:59:39 10° WNW
Meteor 1-23 Rocket 4.0 01:53:38 71° SSW 01:54:17 86° WNW 01:59:54 10° N
Okean 2 3.7 01:56:19 63° NNE 01:56:19 63° NNE 01:59:51 10° N
Landsat 5 4.0 01:56:41 52° NW 01:56:41 52° NW 02:00:08 10° NNW
Cosmos 292 Rocket 4.1 01:57:25 55° E 01:57:25 55° E 02:02:01 10° NNE
Cosmos 2341 Rocket 4.0 01:55:34 10° NNW 02:01:43 63° W 02:02:46 54° SW
NOSS 3-4 (A) 3.9 02:03:05 45° SE 02:03:47 47° ESE 02:09:58 10° NE
NOSS 3-4 (C) 3.9 02:03:12 44° SE 02:03:53 46° ESE 02:10:04 10° NE
ATLAS 2AS CENTAUR R/B 3.5 01:58:37 20° WSW 02:04:15 57° NW 02:12:19 10° NE
Cosmos 1538 Rocket 3.8 02:07:31 78° S 02:07:51 87° ESE 02:13:03 10° NNE
NOSS 3-2 (A) 4.0 02:04:35 10° NW 02:11:51 60° WSW 02:13:54 47° S
Okean 1-7 Rocket 4.3 02:14:39 42° WNW 02:14:39 42° WNW 02:18:43 10° N
Cosmos 2058 Rocket 3.1 02:10:58 10° NNW 02:14:57 70° NW 02:14:57 70° NW
Cosmos 923 Rocket 4.4 02:15:43 49° SE 02:16:15 51° ESE 02:21:26 10° NNE
RESURS DK-1 3.9 02:20:16 27° E 02:20:16 27° E 02:23:14 10° NE
Cosmos 44 Rocket 4.4 02:15:29 10° NW 02:18:20 30° WNW 02:18:20 30° WNW
Iridium 2 4.2 02:17:11 10° N 02:20:34 56° NE 02:20:34 56° NE
Meteor 1-4 Rocket 3.8 02:19:57 10° N 02:23:32 38° ENE 02:23:39 38° ENE
SL-08 R/B 4.4 02:17:47 10° N 02:24:08 87° W 02:25:42 54° S
ATLAS 3B R/B 4.2 02:19:58 10° WNW 02:23:38 18° W 02:23:38 18° W
Meteor 2-21 Rocket 4.5 02:18:55 10° N 02:25:07 76° E 02:27:02 46° SSE
Cosmos 1892 Rocket 3.6 02:26:11 72° WNW 02:26:11 72° WNW 02:30:37 10° N
Cosmos 1441 Rocket 4.2 02:26:57 40° NW 02:26:57 40° NW 02:30:04 10° N
Cosmos 1943 3.5 02:25:23 45° WSW 02:26:47 58° WNW 02:32:22 10° NNE
Cosmos 773 Rocket 3.8 02:26:47 71° SSW 02:27:22 89° WNW 02:32:35 10° NNE
Meteor 2-4 Rocket 4.5 02:28:10 34° W 02:29:14 37° WNW 02:34:21 10° N
CZ-2D R/B 4.5 02:29:06 10° NE 02:31:43 14° E 02:34:18 10° ESE
Meteor 2-21 4.3 02:25:37 10° NNW 02:31:47 82° W 02:33:18 53° S
CZ-4B R/B 4.0 02:34:49 13° NW 02:34:49 13° NW 02:35:30 10° NW
Cosmos 2228 3.4 02:32:35 10° NNW 02:36:34 54° WNW 02:36:34 54° WNW
COSMOS 2455 2.8 02:33:26 10° NW 02:39:26 68° WSW 02:40:43 53° S
Cosmos 1602 Rocket 3.8 02:41:41 58° ESE 02:42:03 60° E 02:46:26 10° NNE
Cosmos 1953 4.3 02:40:13 10° NNE 02:43:35 25° ENE 02:45:27 18° ESE
Cosmos 1437 Rocket 4.3 02:40:37 10° NNW 02:42:54 26° WNW 02:42:54 26° WNW
Cosmos 2369 Rocket 4.0 02:46:14 10° WNW 02:48:57 17° W 02:48:57 17° W
Cosmos 2112 Rocket 4.1 02:50:05 52° SSE 02:51:10 66° ESE 02:56:24 10° NNE
H-2A R/B 3.2 02:48:59 10° N 02:52:25 37° WNW 02:52:25 37° WNW
Cosmos 1943 Rocket 3.2 02:48:36 10° NW 02:52:59 29° W 02:52:59 29° W
Cosmos 2366 rocket 4.2 02:48:46 10° NNW 02:54:52 54° W 02:56:23 44° SW
Cosmos 2218 Rocket 4.4 02:50:55 10° NNW 02:56:48 46° W 02:58:06 40° WSW
Cosmos 1271 Rocket 3.8 02:54:45 10° N 02:58:18 39° ENE 02:59:16 32° ESE
USA 215 3.4 02:54:50 10° ENE 03:01:15 55° SE 03:03:24 40° SSW
Cosmos 1624 Rocket 4.0 02:56:26 10° NNW 03:01:41 80° ENE 03:04:01 34° SSE
Cosmos 1758 4.3 02:59:30 10° N 03:03:27 43° ENE 03:04:54 31° SE
ATLAS CENTAUR R/B 4.3 03:02:37 10° NNW 03:03:36 11° NNW 03:04:35 10° N
Cosmos 1805 3.7 03:02:24 10° N 03:06:18 56° ENE 03:07:07 45° ESE
Cosmos 921 Rocket 3.4 03:03:17 10° NNW 03:07:47 64° ENE 03:09:45 32° SE
PSLV R/B 4.3 03:10:19 48° W 03:10:19 48° W 03:14:05 10° NNW
ADEOS Rocket 4.3 03:05:37 10° NNE 03:11:11 34° E 03:16:02 15° SSE
Cosmos 2056 Rocket 3.4 03:10:31 10° NNW 03:15:53 85° WSW 03:18:17 34° SSE
NOSS 2-2 (E) 4.3 03:15:29 35° SE 03:16:11 38° ESE 03:20:41 10° NE
SL-16 R/B 2.9 03:11:06 12° SE 03:16:41 62° ENE 03:22:46 10° N
Cosmos 389 Rocket 4.4 03:15:48 10° N 03:19:00 28° ENE 03:21:25 14° SE
CENTAUR R/B 3.0 03:13:16 10° NW 03:21:00 73° SW 03:29:21 10° SSE
Cosmos 1680 Rocket 3.7 03:21:31 42° SW 03:23:08 63° WNW 03:28:22 10° NNE
Lacrosse 5 rocket 2.0 03:23:22 45° SSE 03:24:08 50° SE 03:28:39 10° ENE
CBERS-1 4.1 03:19:20 10° NNE 03:24:28 71° ESE 03:26:28 37° S
Cosmos 1842 3.2 03:25:04 63° S 03:25:38 81° E 03:29:32 10° NNE
Cosmos 1758 Rocket 4.5 03:23:59 27° SE 03:25:49 42° E 03:29:55 10° NNE
Helios 1A Rocket 3.6 03:22:59 10° N 03:26:51 41° WNW 03:27:23 38° W
Cosmos 1656 Rocket 4.3 03:22:33 10° NW 03:27:20 33° WSW 03:27:26 33° WSW
EXPRESS MD2 4.1 03:18:47 10° WNW 03:27:32 77° SSW 03:31:36 10° ESE
IRS-P3 4.1 03:22:16 10° NNE 03:27:39 88° ESE 03:29:46 38° SSW
Cosmos 1812 Rocket 3.9 03:23:48 10° NNW 03:28:02 45° W 03:28:23 44° WSW
Cosmos 1766 3.7 03:24:54 10° NNW 03:28:40 44° W 03:28:40 44° W
Aureole 1 Rocket 3.5 03:31:15 39° WSW 03:32:16 46° WNW 03:35:58 10° NNE
SL-27 R/B 2.3 03:32:04 72° SSW 03:32:24 87° ESE 03:36:05 10° NNE
SL-08 R/B 3.3 03:32:03 44° SSW 03:33:21 61° WSW 03:38:09 10° NNW
COSMOS 2406 3.2 03:33:07 37° SW 03:35:29 79° WNW 03:41:16 10° NNE
USA 267 3.2 03:29:35 10° SE 03:36:09 84° SSW 03:42:44 10° WNW
IRS-1D 4.1 03:38:26 10° NNE 03:43:34 53° E 03:46:58 21° S
Cosmos 1707 4.5 03:42:22 15° SE 03:44:55 28° E 03:48:16 10° NNE
ARIANE 5 R/B 3.2 03:41:23 10° NNE 03:46:31 52° E 03:49:59 20° S
Cosmos 1544 3.5 03:44:15 10° NNW 03:47:47 44° W 03:47:53 43° W
Cosmos 1953 Rocket 3.7 03:45:54 32° S 03:47:54 74° E 03:52:24 10° NNE
Resurs 1-4 Rocket 2.6 03:42:55 10° NNE 03:48:08 57° E 03:51:36 21° S
Nadezhda 3 Rocket 4.2 03:46:12 31° SW 03:49:11 57° WNW 03:55:28 10° N
DNEPR-1 R/B 3.4 03:45:59 10° NW 03:50:11 62° SW 03:54:09 12° SSE
Cosmos 1452 Rocket 3.5 03:45:13 10° NNW 03:50:31 83° ENE 03:55:47 10° SSE
Meteor 2-8 Rocket 4.5 03:48:57 30° SSW 03:52:03 67° WNW 03:58:13 10° N
NOSS 2-2 (D) 3.7 03:51:29 38° SSW 03:53:00 67° SE 03:57:52 10° NE
ADEOS 3.9 03:49:18 10° NNE 03:54:29 62° ESE 03:57:59 21° S
NOSS 3-4 (A) 4.1 03:50:30 21° WSW 03:54:42 50° NW 04:01:10 10° NE
NOSS 3-4 (C) 4.1 03:50:37 21° WSW 03:54:48 51° NW 04:01:16 10° NE
RESURS DK-1 3.3 03:56:10 27° W 03:57:38 36° NW 04:01:31 10° NNE
Cosmos 1470 2.8 03:54:03 10° N 03:57:59 81° E 04:00:22 23° SSE
Meteor 1-4 Rocket 4.4 03:55:42 10° NW 03:57:57 18° WNW 03:57:57 18° WNW
Cosmos 1420 Rocket 4.3 03:57:55 10° NNW 04:03:16 72° ENE 04:08:33 10° SSE
NOSS 5 (C) 4.3 04:04:23 45° WSW 04:05:11 66° NW 04:08:15 10° NE
NPP 4.0 04:02:21 10° N 04:07:35 50° WNW 04:10:25 25° SW
Cosmos 1825 Rocket 3.8 04:05:59 32° SW 04:07:45 53° WNW 04:12:04 10° N
NOSS 2-2 (C) 3.5 04:09:23 31° SW 04:11:23 88° NW 04:16:23 10° NE
UNK 3.9 04:09:37 25° SSW 04:12:06 53° W 04:16:36 10° NNW
CZ-2D R/B 2.1 04:07:16 10° NNE 04:12:37 86° ESE 04:16:20 20° SSW
Gbstr 26 Del rocket 4.4 04:05:34 10° WNW 04:13:42 90° SSW 04:20:51 10° ESE
Cosmos 1733 3.1 04:10:32 10° NNW 04:14:19 67° W 04:16:25 25° S
COSMOS 2487 3.0 04:13:01 24° S 04:14:53 53° ESE 04:18:24 10° NNE
AQUA 4.3 04:11:26 10° N 04:15:59 46° WNW 04:18:24 25° SW
Cosmos 1727 Rocket 4.1 04:11:31 13° S 04:17:01 77° E 04:23:12 10° NNE
UNKNOWN OBJECT B 3.6 04:13:19 10° NNE 04:17:15 51° E 04:20:35 14° S
Cosmos 1697 Rocket 3.0 04:12:39 10° NNW 04:18:18 71° ENE 04:23:53 10° SE
Orbus 7S? 2.9 04:15:09 10° WNW 04:19:30 59° SW 04:22:11 10° SE
Cosmos 1953 3.2 04:16:29 10° NNW 04:20:03 31° W 04:21:10 27° WSW
Cosmos 839 Rocket 4.4 04:16:54 10° NW 04:22:52 45° WSW 04:29:43 10° S
BREEZE-M DEB (TANK) 4.0 04:19:45 19° WSW 04:23:03 85° SSE 04:42:59 10° E
Cosmos 1153 Rocket 4.4 04:17:11 10° N 04:23:21 86° W 04:29:29 10° S
Intercosmos 25 4.3 04:17:07 10° N 04:24:45 89° ENE 04:29:18 10° S
Cosmos 1818 3.6 04:24:10 22° SW 04:27:45 74° NW 04:33:13 10° NE
GENESIS II 4.4 04:24:34 10° NW 04:28:36 77° NE 04:32:31 10° SE
USA 161 1.5 04:28:53 11° SSE 04:31:36 78° ENE 04:34:19 10° N
Cosmos 2278 3.9 04:27:17 10° NW 04:32:48 50° WSW 04:38:17 10° S
Cosmos 1271 Rocket 4.3 04:31:30 10° NW 04:34:04 18° W 04:34:27 17° W
Cosmos 1459 Rocket 4.3 04:28:26 10° N 04:34:37 72° E 04:40:52 10° SSE
Cosmos 1656 3.6 04:32:42 10° NNW 04:38:05 63° WSW 04:43:26 10° SSE
Okean O Rocket 3.7 04:34:50 10° NE 04:38:33 25° E 04:42:13 10° SSE
COBE Rocket 4.0 04:34:28 10° N 04:39:29 65° WNW 04:43:26 15° SSW
Cosmos-2242 3.5 04:37:00 10° NNW 04:41:09 40° W 04:44:24 15° SSW
Cosmos 2369 4.0 04:36:28 10° NW 04:41:53 44° WSW 04:47:16 10° S
Cosmos 1802 Rocket 4.4 04:36:54 10° N 04:43:22 72° E 04:49:44 10° SSE
Abrixas 2.4 04:42:34 21° W 04:44:08 49° SSW 04:46:52 10° ESE
USA 215 3.5 04:37:55 10° ENE 04:44:24 66° NNW 04:50:45 11° WSW
Cosmos 2322 Rocket 4.2 04:40:38 10° NNW 04:45:45 33° NE 04:50:52 10° ESE
GEOS 3 Rocket 3.8 04:40:52 10° NE 04:46:10 71° SE 04:50:51 14° SSW
ADEOS II 3.7 04:41:47 10° NNE 04:46:33 33° E 04:51:17 10° SSE
Cosmos 1605 Rocket 4.4 04:42:18 10° NNW 04:48:03 41° W 04:53:41 10° SSW
Cosmos 158 Rocket 4.4 04:46:09 10° S 04:51:07 60° ESE 04:56:16 10° NNE
Cosmos 1833 Rocket 2.9 04:47:42 10° SSW 04:53:14 70° ESE 04:58:51 10° NNE
Cosmos 389 Rocket 3.8 04:50:51 10° NW 04:53:44 23° W 04:55:25 16° SW
Cosmos 1980 Rocket 2.4 04:48:10 10° NNW 04:53:54 81° ENE 04:59:35 10° SSE
ADEOS Rocket 3.5 04:51:03 10° N 04:56:52 50° WNW 05:03:00 11° SW
Cosmos 1842 Rocket 3.6 04:53:55 10° NNW 04:58:16 59° W 05:02:38 10° S
SL-16 R/B 3.5 04:56:11 12° SW 05:00:45 27° W 05:05:52 10° NW
Cosmos 2082 Rocket 2.3 04:55:15 10° SSW 05:00:54 85° ESE 05:06:39 10° NNE
Cosmos 2221 3.0 04:56:42 10° N 05:00:58 64° ENE 05:05:11 10° SSE
Cosmos 2098 Rocket 3.8 04:59:35 10° NW 05:01:35 17° W 05:02:32 15° WSW
Lacrosse 5 rocket 2.3 04:59:03 11° W 05:03:31 49° NNW 05:08:02 10° NE
CZ-2D R/B 3.5 05:00:55 10° N 05:04:55 59° WNW 05:08:50 10° SSW
CZ-4B R/B 4.3 05:03:20 10° NNE 05:08:26 42° E 05:13:26 10° S
Cosmos 1378 3.5 05:05:53 11° SSW 05:09:20 46° WNW 05:12:57 10° N
Landsat 4 3.8 05:05:50 10° S 05:09:30 56° WSW 05:13:13 10° NNW
CENTAUR R/B 4.2 05:05:21 10° WNW 05:10:47 20° WSW 05:16:25 10° SSW
Timation 2 Rocket 4.3 05:09:57 10° SSW 05:16:33 74° ESE 05:22:53 10° NNE
Cosmos 972 Rocket 4.5 05:11:09 10° NNW 05:17:29 58° WSW 05:23:05 10° S
SL-16 R/B 3.3 05:12:13 10° NNW 05:17:46 51° NE 05:23:16 10° SE
USA 267 4.0 05:14:11 10° S 05:19:45 29° SW 05:25:22 10° WNW
Cosmos 1707 4.0 05:17:37 10° SW 05:20:50 26° WNW 05:24:07 10° NNW
Meteor 2-5 Rocket 4.2 05:15:54 10° SSW 05:21:29 49° WNW 05:27:12 10° N
Cosmos 2100 Rocket 4.2 05:17:14 10° NNW 05:23:11 50° W 05:29:05 10° SSW
Cosmos 2173 Rocket 4.2 05:17:38 10° NNW 05:23:46 55° W 05:29:45 10° SSW
MOS 1 Rocket 3.4 05:19:38 10° N 05:23:54 54° WNW 05:28:18 10° SSW
ARIANE 5 R/B 3.8 05:21:01 10° N 05:25:22 27° WNW 05:29:41 10° WSW
Resurs 1-4 Rocket 3.4 05:23:22 10° N 05:27:38 26° WNW 05:31:54 10° WSW
Cosmos 1908 3.5 05:25:04 10° N 05:28:57 74° E 05:32:50 10° SSE
Meteor 2-1 Rocket 4.5 05:26:02 10° NNW 05:31:31 52° W 05:37:05 10° S
In-Cosmos 22 4.1 05:30:13 10° SSW 05:35:30 81° WNW 05:40:50 10° N
